Stations météo

Publicité
Drumnadrochit, Grande-Bretagne (99132): Température de l'air & dewpoint: 21.04.2018 01:00:00 - 27.04.2018 01:00:00 (BST)Drumnadrochit, Grande-Bretagne (99132): Quantités de précipitations: 21.04.2018 01:00:00 - 27.04.2018 01:00:00 (BST)
Date & Time tt [°C] td [°C] rr [mm]
27.04.2018 01:00:00 4,0 3,7 0,0
27.04.2018 00:00:00 4,3 4,1 0,2
26.04.2018 23:00:00 4,9 4,1 0,2
26.04.2018 22:00:00 4,8 3,9 0,0
26.04.2018 21:00:00 5,8 4,5 0,0
26.04.2018 20:00:00 6,6 4,2 0,2
26.04.2018 19:00:00 7,8 4,7 0,4
26.04.2018 18:00:00 8,0 4,9 0,8
26.04.2018 17:00:00 9,9 6,1 0,6
26.04.2018 16:00:00 10,3 4,0 0,2
26.04.2018 15:00:00 11,1 3,3 0,0
26.04.2018 14:00:00 10,7 3,1 0,0
26.04.2018 13:00:00 10,1 3,4 0,0
26.04.2018 12:00:00 9,1 5,0 0,2
26.04.2018 11:00:00 9,5 2,1 0,0
26.04.2018 10:00:00 9,3 2,2 0,0
26.04.2018 09:00:00 - - 0,0
26.04.2018 08:00:00 - - 0,0
26.04.2018 07:00:00 - - 0,0
26.04.2018 06:00:00 - - 0,0
26.04.2018 05:00:00 - - 0,0
26.04.2018 04:00:00 - - 0,0
26.04.2018 03:00:00 - - 0,2
26.04.2018 02:00:00 - - 0,0
26.04.2018 01:00:00 - - 0,2
26.04.2018 00:00:00 - - 0,0
25.04.2018 23:00:00 - - 0,2
25.04.2018 22:00:00 - - 0,0
25.04.2018 21:00:00 - - 0,0
25.04.2018 20:00:00 - - 0,0
25.04.2018 19:00:00 - - 0,0
25.04.2018 18:00:00 - - 0,0
25.04.2018 17:00:00 - - 0,0
25.04.2018 16:00:00 - - 0,0
25.04.2018 15:00:00 - - 0,0
25.04.2018 14:00:00 - - 0,0
25.04.2018 13:00:00 - - 0,2
25.04.2018 12:00:00 9,3 4,0 0,0
25.04.2018 11:00:00 7,9 4,5 0,2
25.04.2018 10:00:00 8,8 3,7 0,0
25.04.2018 09:00:00 8,9 4,6 0,0
25.04.2018 08:00:00 7,9 5,1 0,0
25.04.2018 07:00:00 4,4 3,7 0,0
25.04.2018 06:00:00 4,7 3,6 0,0
25.04.2018 05:00:00 2,4 1,4 0,0
25.04.2018 04:00:00 2,7 2,0 0,0
25.04.2018 03:00:00 2,2 1,9 0,0
25.04.2018 02:00:00 1,0 0,5 0,0
25.04.2018 01:00:00 1,4 0,4 0,0
25.04.2018 00:00:00 2,0 0,7 0,0
24.04.2018 23:00:00 4,9 1,4 0,0
24.04.2018 22:00:00 5,5 2,9 0,0
24.04.2018 21:00:00 6,7 2,7 0,0
24.04.2018 20:00:00 8,9 3,2 0,0
24.04.2018 19:00:00 11,4 1,3 0,0
24.04.2018 18:00:00 11,4 1,1 0,0
24.04.2018 17:00:00 10,3 4,6 0,0
24.04.2018 16:00:00 11,9 3,8 0,0
24.04.2018 15:00:00 12,8 3,7 0,0
24.04.2018 14:00:00 13,1 4,1 0,0
24.04.2018 13:00:00 11,9 3,6 0,0
24.04.2018 12:00:00 11,9 3,6 0,0
24.04.2018 11:00:00 11,4 3,6 0,0
24.04.2018 10:00:00 8,6 2,7 0,0
24.04.2018 09:00:00 9,3 3,8 0,0
24.04.2018 08:00:00 7,3 5,1 0,2
24.04.2018 07:00:00 5,8 4,8 0,0
24.04.2018 06:00:00 6,4 3,1 0,0
24.04.2018 05:00:00 6,0 4,5 0,6
24.04.2018 04:00:00 6,8 3,6 0,2
24.04.2018 03:00:00 6,4 4,3 0,0
24.04.2018 02:00:00 5,5 4,8 0,0
24.04.2018 01:00:00 7,3 3,7 1,0
24.04.2018 00:00:00 8,3 7,8 0,2
23.04.2018 23:00:00 8,4 7,5 0,0
23.04.2018 22:00:00 8,2 7,6 0,2
23.04.2018 21:00:00 8,1 6,8 0,0
23.04.2018 20:00:00 9,4 6,4 0,0
23.04.2018 19:00:00 9,6 5,8 0,0
23.04.2018 18:00:00 9,4 5,7 0,0
23.04.2018 17:00:00 9,5 5,4 0,0
23.04.2018 16:00:00 10,3 5,3 0,0
23.04.2018 15:00:00 11,1 4,3 0,0
23.04.2018 14:00:00 11,5 6,4 0,0
23.04.2018 13:00:00 12,3 6,9 0,2
23.04.2018 12:00:00 9,9 5,9 0,0
23.04.2018 11:00:00 10,8 4,5 0,0
23.04.2018 10:00:00 10,0 6,0 0,0
23.04.2018 09:00:00 9,8 5,9 0,0
23.04.2018 08:00:00 8,8 6,7 0,4
23.04.2018 07:00:00 8,9 6,4 0,0
23.04.2018 06:00:00 8,7 5,7 0,0
23.04.2018 05:00:00 8,4 6,2 0,0
23.04.2018 04:00:00 8,6 6,0 0,0
23.04.2018 03:00:00 8,3 5,9 0,0
23.04.2018 02:00:00 8,6 5,8 0,2
23.04.2018 01:00:00 7,5 5,5 0,0
23.04.2018 00:00:00 8,3 5,3 0,0
22.04.2018 23:00:00 8,2 5,7 0,0
22.04.2018 22:00:00 7,7 5,4 0,0
22.04.2018 21:00:00 8,2 5,3 0,0
22.04.2018 20:00:00 8,9 5,7 0,0
22.04.2018 19:00:00 9,7 5,7 0,0
22.04.2018 18:00:00 9,5 6,3 0,2
22.04.2018 17:00:00 10,8 5,1 0,0
22.04.2018 16:00:00 11,6 6,3 0,0
22.04.2018 15:00:00 11,7 6,2 0,0
22.04.2018 14:00:00 10,0 6,1 0,0
22.04.2018 13:00:00 11,1 7,1 0,0
22.04.2018 12:00:00 10,5 6,6 0,0
22.04.2018 11:00:00 10,6 6,1 0,0
22.04.2018 10:00:00 9,7 5,4 0,0
22.04.2018 09:00:00 7,4 4,2 0,0
22.04.2018 08:00:00 4,6 3,6 0,0
22.04.2018 07:00:00 0,9 0,3 0,0
22.04.2018 06:00:00 1,1 0,4 0,0
22.04.2018 05:00:00 2,1 1,7 0,0
22.04.2018 04:00:00 1,7 1,2 0,0
22.04.2018 03:00:00 3,0 2,0 0,0
22.04.2018 02:00:00 4,1 3,1 0,0
22.04.2018 01:00:00 5,0 4,4 0,0
22.04.2018 00:00:00 4,3 3,3 0,0
21.04.2018 23:00:00 5,0 3,2 0,0
21.04.2018 22:00:00 6,4 3,3 0,0
21.04.2018 21:00:00 9,7 5,2 0,0
21.04.2018 20:00:00 14,3 4,2 0,0
21.04.2018 19:00:00 15,1 3,6 0,0
21.04.2018 18:00:00 16,1 4,8 0,0
21.04.2018 17:00:00 16,6 5,7 0,0
21.04.2018 16:00:00 16,5 6,0 0,0
21.04.2018 15:00:00 16,7 5,2 0,0
21.04.2018 14:00:00 16,1 4,6 0,0
21.04.2018 13:00:00 15,0 5,2 0,0
21.04.2018 12:00:00 13,9 4,9 0,0
21.04.2018 11:00:00 13,3 4,6 0,0
21.04.2018 10:00:00 11,2 6,0 0,0
21.04.2018 09:00:00 9,6 5,7 0,0
21.04.2018 08:00:00 5,3 5,2 0,0
21.04.2018 07:00:00 2,2 2,2 0,2
21.04.2018 06:00:00 0,7 0,6 0,0
21.04.2018 05:00:00 0,3 -0,5 0,0
21.04.2018 04:00:00 1,9 1,7 0,0
21.04.2018 03:00:00 1,1 0,8 0,0
21.04.2018 02:00:00 2,0 1,7 0,0
21.04.2018 01:00:00 2,6 2,0 0,0

tt = Température de l'air
td = dewpoint
rr = Quantités de précipitations

stations d'obs. à proximité